AKST,Max TemperatureF,Mean TemperatureF,Min TemperatureF,Max Dew PointF,MeanDew PointF,Min DewpointF,Max Humidity, Mean Humidity, Min Humidity, Max Sea Level PressureIn, Mean Sea Level PressureIn, Min Sea Level PressureIn, Max VisibilityMiles, Mean VisibilityMiles, Min VisibilityMiles, Max Wind SpeedMPH, Mean Wind SpeedMPH, Max Gust SpeedMPH,PrecipitationIn, CloudCover, Events, WindDirDegrees
2011-11-1,42,39,36,36,29,22,82,68,50,30.52,30.14,29.80,10,10,6,26,17,37,0.02,8,Rain-Snow,330
2011-11-2,54,43,34,45,33,22,83,69,57,30.53,30.12,29.46,10,9,3,29,10,44,0.59,7,Rain,150
2011-11-3,54,48,44,45,38,31,83,73,60,29.83,29.33,29.14,10,7,2,38,22,58,0.11,7,Rain,236
2011-11-4,48,44,43,39,36,31,76,69,60,30.13,30.01,29.83,10,10,6,32,20,39,0.02,7,Rain,225
2011-11-5,48,44,39,39,33,29,81,69,55,29.79,29.57,29.51,10,8,4,31,19,53,0.25,8,Rain,227
2011-11-6,42,40,37,36,33,30,86,75,61,29.89,29.74,29.61,10,9,3,28,15,41,0.14,8,Rain,236
2011-11-7,39,36,34,34,30,23,93,76,55,30.39,29.90,29.59,10,9,4,23,13,38,0.31,6,Rain,16
2011-11-8,52,44,35,43,35,24,82,70,55,30.39,30.01,29.74,10,9,4,22,9,37,0.28,6,Rain,171
2011-11-9,46,42,39,39,35,29,89,72,56,29.98,29.81,29.73,10,10,7,21,9,28,0.00,4,,213
2011-11-10,46,40,35,41,31,26,87,72,53,30.13,29.88,29.22,10,8,3,31,13,44,0.22,7,Rain,141
2011-11-11,55,49,42,49,39,28,83,72,56,29.57,29.09,28.76,10,9,3,39,19,60,0.20,8,Rain,220
2011-11-12,43,39,35,33,25,20,70,58,48,30.12,29.89,29.58,10,10,10,40,22,53,0.00,7,Rain,265
2011-11-13,39,36,33,32,29,25,93,76,60,30.18,30.15,30.11,10,9,2,21,8,30,0.01,6,Rain,234
2011-11-14,45,40,37,37,33,28,80,72,65,30.19,30.06,29.95,10,10,7,24,13,36,0.01,7,Rain,214
2011-11-15,42,36,30,36,25,18,93,71,56,30.54,30.24,29.98,10,9,4,25,17,36,0.02,8,Rain-Snow,6
2011-11-16,37,34,30,34,27,19,89,74,61,30.56,30.44,30.26,10,8,2,30,12,38,0.03,8,Rain-Snow,125
2011-11-17,50,44,37,43,38,33,87,78,58,30.25,30.03,29.88,10,9,5,32,22,43,0.01,6,Rain,167
2011-11-18,46,44,43,40,34,29,82,67,53,30.33,30.12,29.75,10,10,7,29,14,43,0.22,6,Rain,185
2011-11-19,46,42,37,40,31,23,83,67,43,29.73,29.47,29.16,10,10,5,21,12,34,0.15,5,Rain,221
2011-11-20,41,39,36,37,34,30,93,81,73,29.56,29.25,29.01,10,8,3,21,15,32,0.38,8,Rain,311
2011-11-21,37,34,30,32,23,19,87,68,59,29.93,29.75,29.54,10,10,6,24,16,39,0.00,8,Rain,356
2011-11-22,34,32,30,29,26,18,93,80,54,29.92,29.73,29.54,10,8,1,16,9,17,0.00,8,Rain-Snow,272
2011-11-23,39,34,28,32,28,19,93,82,59,29.52,29.41,29.26,10,6,1,22,6,43,0.07,8,Snow,238
2011-11-24,33,30,28,27,24,18,86,77,54,29.87,29.64,29.50,10,6,1,33,17,51,0.00,8,Snow,328
2011-11-25,34,31,28,27,24,18,86,73,56,30.13,30.07,29.91,10,7,0,32,19,37,0.00,7,Rain-Snow,306
2011-11-26,41,36,30,34,30,21,93,82,64,30.03,29.39,29.07,10,6,2,26,10,36,0.21,8,Rain-Snow,156
2011-11-27,41,38,36,34,30,26,87,72,62,29.34,29.27,29.16,10,10,9,17,8,22,0.03,5,Rain,238
2011-11-28,41,38,35,32,29,25,81,71,57,29.45,29.40,29.32,10,10,9,25,5,33,0.00,4,Rain,153
2011-11-29,42,38,35,37,35,31,93,85,73,29.27,29.02,28.82,10,6,2,36,19,50,6.31,8,Rain,125
2011-11-30,39,37,35,34,30,26,89,78,65,29.78,29.59,29.31,10,8,4,25,17,33,0.22,7,Rain-Snow,264